Zurück zum Katalog

CZ-6A DEB

AktivPO
NORAD 61264·DEBRIS·🇨🇳 China

Gestartet Aug 6, 2024 von Taiyuan Satellite Launch Center

Loading…

Nächste Überflüge (nächste 24 Stunden)

TLE

AktuellSource: Space-Track

Epoche: Sep 14, 2026, 11:18 UTC

1 61264U 24140RZ  26257.47114448  .00001543  00000-0  64264-3 0  9993
2 61264  89.0033 264.7401 0038927 225.6250 134.1753 14.25482211106527

Verfolge CZ-6A DEB in Echtzeit mit AllMySat

Download on the App Store